Hourly Data Report for September 26, 2006

TORONTO CITY
ONTARIO

43°40'00.000" N
79°24'00.000" W
112.50 m
6158355
71508
XTO

Download Data

Hourly Data (September 2006)
Hourly Data Report for September 26, 2006
TIME
LST
Temp Definition
°C
Dew Point Definition
°C
Rel Hum Definition
%
Precip. Amount Definition
mm

Wind Dir Definition
10's deg

Wind Spd Definition
km/h
Visibility Definition
km
Stn Press Definition
kPa
Hmdx Definition


Wind Chill Definition


Weather Definition


00:00 12.3 9.2 81   LegendMM LegendMM   99.76     LegendNANA
01:00 12.0 9.0 82   LegendMM LegendMM   99.77     LegendNANA
02:00 11.4 8.7 83   LegendMM LegendMM   99.82     LegendNANA
03:00 11.0 8.3 83   LegendMM LegendMM   99.84     LegendNANA
04:00 10.8 8.4 85   LegendMM LegendMM   99.89     LegendNANA
05:00 9.9 8.0 88   LegendMM LegendMM   100.00     LegendNANA
06:00 9.9 8.1 89   LegendMM LegendMM   100.08     LegendNANA
07:00 9.9 8.5 91   LegendMM LegendMM   100.18     LegendNANA
08:00 11.7 8.9 83   LegendMM LegendMM   100.23     LegendNANA
09:00 13.5 8.1 70   LegendMM LegendMM   100.29     LegendNANA
10:00 14.9 9.1 68   LegendMM LegendMM   100.30     LegendNANA
11:00 15.6 10.5 72   LegendMM LegendMM   100.29     LegendNANA
12:00 16.5 10.0 65   LegendMM LegendMM   100.27     LegendNANA
13:00 17.2 10.1 63   LegendMM LegendMM   100.23     LegendNANA
14:00 18.1 9.5 57   LegendMM LegendMM   100.18     LegendNANA
15:00 18.2 10.6 61   LegendMM LegendMM   100.17     LegendNANA
16:00 17.5 9.5 59   LegendMM LegendMM   100.12     LegendNANA
17:00 16.7 10.4 66   LegendMM LegendMM   100.10     LegendNANA
18:00 15.8 11.2 74   LegendMM LegendMM   100.09     LegendNANA
19:00 15.3 10.8 75   LegendMM LegendMM   100.10     LegendNANA
20:00 14.6 10.6 77   LegendMM LegendMM   100.09     LegendNANA
21:00 13.8 10.0 78   LegendMM LegendMM   100.08     LegendNANA
22:00 12.2 9.3 82   LegendMM LegendMM   100.05     LegendNANA
23:00 11.5 8.9 84   LegendMM LegendMM   100.03     LegendNANA

Notes on Data Quality.

Legend

  • E = Estimated
  • M = Missing
  • NA = Not Available*
  • [empty] = Indicates an unobserved value
Date modified: